Location: Roland
(31.1349°N, 85.4372°W)
Time: 19:35:03
(UTC+00:00)

SR - Pass Details

Date: 19 April 2021
Orbit: 573 x 882 km, 66.7° (Epoch: 13 May)

Event Time Altitude Azimuth Distance (km) Brightness Sun altitude
Rises 22:43:03 0° 332° (NNW) 3,424 ? 18.2°
Reaches altitude 10° 22:45:36 10° 331° (NNW) 2,454 ? 17.6°
Maximum altitude 22:51:16 74° 247° (WSW) 826 ? 16.4°
Drops below altitude 10° 22:56:26 10° 163° (SSE) 2,252 ? 15.3°
Sets 22:58:42 0° 161° (SSE) 3,123 ? 14.8°
